Flag for Botswana Weather past 2 weeks in Gaborone, Botswana

Now
50 °F

Clear.


Feels Like: 48 °F
Forecast: 40 / 79 °F
Wind: 5 mph from Northwest

Location: Seretse Khama International Airport

Current Time: May 29, 2015 at 2:17:15 AM

Latest Report: May 29, 2015 at 1:00 AM


Visibility: 10 mi

Pressure: 30.21 "Hg

Humidity: 47%

Dew point: 30 °F

Location of GaboroneLocation

Historic Weather in Gaborone — Graph

°F

Gaborone temperature yesterday

Maximum temperature yesterday: 82 °F (at 3:00 PM)
Minimum temperature yesterday: 45 °F (at 3:00 AM)
Average temperature yesterday: 63 °F

Past Weeks' High & Low Weather Summary

 TemperatureHumidityPressure
High90 °F (May 15, 4:00 PM)82% (May 23, 5:00 AM)30.42 "Hg (May 23, 5:00 AM)
Low43 °F (May 25, 6:00 AM)10% (May 16, 3:00 PM)30.04 "Hg (May 14, 2:00 PM)
Average65 °F39%30.23 "Hg
* Reported Midnight between May 13 and May 14 — Midnight between May 28 and May 29, Gaborone, Weather by CustomWeather, © 2015

Note: Actual official high and low records may vary slightly from our data, if they occured in-between our weather recording intervals... More about our weather records

Advertising

Gaborone weather history for previous 24 hours

 ConditionsComfort  
Time TempWeatherWind HumidityBarometerVisibility
12:00 AM
Fri, May 29
55 °FClear.5 mph36%30.21 "Hg10 mi
11:00 PM
Thu, May 28
55 °FClear.5 mph36%30.21 "Hg10 mi
10:00 PM57 °FClear.2 mph31%30.21 "Hg10 mi
9:00 PM61 °FClear.2 mph27%30.21 "Hg10 mi
8:00 PM66 °FPassing clouds.7 mph22%30.18 "HgN/A
7:00 PM68 °FClear.5 mph21%30.18 "Hg10 mi
6:00 PM73 °FClear.5 mph16%30.15 "Hg10 mi
5:00 PM81 °FClear.2 mph12%30.15 "Hg10 mi
4:00 PM82 °FPassing clouds.3 mph12%30.15 "HgN/A
3:00 PM82 °FSunny.3 mph12%30.15 "Hg10 mi
2:00 PM81 °FSunny.3 mph16%30.18 "Hg10 mi
1:00 PM79 °FPassing clouds.6 mph18%30.21 "HgN/A
12:00 PM77 °FPassing clouds.6 mph19%30.27 "HgN/A
11:00 AM72 °FSunny.2 mph20%30.27 "Hg10 mi
10:00 AM68 °FSunny.2 mph20%30.27 "Hg10 mi
9:00 AM63 °FSunny.1 mph25%30.27 "Hg10 mi
8:00 AM52 °FSunny.2 mph41%30.24 "Hg10 mi
6:00 AM45 °FPassing clouds.5 mph49%30.21 "HgN/A
5:00 AM46 °FClear.3 mph46%30.21 "Hg10 mi
4:00 AM45 °FClear.5 mph49%30.18 "Hg10 mi
3:00 AM45 °FClear.6 mph49%30.18 "Hg10 mi
2:00 AM48 °FClear.2 mph43%30.21 "Hg10 mi
Weather by CustomWeather, © 2015

See weather overviewHow to use our weather pages